| time (UTC) | temp C | wind direction | speed KPH | gust KPH | rain 1hr cm | rain 24hr cm | rain mn cm | humidity % | barometer mb |
| 20260505041536 | 11 | 0 | 4.8 | 12.9 | 0.00 | 1.07 | 0.00 | 95 | 1011.8 |
| 20260505041015 | 11 | 345 | 4.8 | 12.9 | 0.00 | 1.07 | 0.00 | 95 | 1011.8 |
| 20260505040517 | 11 | 0 | 3.2 | 8.0 | 0.00 | 1.07 | 0.00 | 95 | 1011.9 |
| 20260505040034 | 11 | 2 | 1.6 | 6.4 | 0.00 | 1.07 | 0.00 | 95 | 1011.9 |
| 20260505035513 | 11 | 0 | 0.0 | 12.9 | 0.00 | 1.07 | 0.00 | 95 | 1011.9 |
| 20260505035015 | 11 | 345 | 0.0 | 12.9 | 0.00 | 1.07 | 0.00 | 95 | 1011.9 |
| 20260505034529 | 11 | 314 | 1.6 | 12.9 | 0.00 | 1.07 | 0.00 | 95 | 1012.0 |
| 20260505034017 | 11 | 0 | 0.0 | 12.9 | 0.00 | 1.07 | 0.00 | 95 | 1012.1 |
| 20260505033516 | 11 | 347 | 3.2 | 12.9 | 0.00 | 1.07 | 0.00 | 95 | 1012.2 |
| 20260505033033 | 12 | 359 | 4.8 | 11.3 | 0.00 | 1.07 | 0.00 | 95 | 1012.0 |
| 20260505032514 | 12 | 0 | 0.0 | 9.7 | 0.00 | 1.07 | 0.00 | 95 | 1011.9 |
| 20260505032016 | 12 | 357 | 1.6 | 12.9 | 0.00 | 1.07 | 0.00 | 95 | 1011.9 |
| 20260505031530 | 12 | 0 | 0.0 | 12.9 | 0.00 | 1.07 | 0.00 | 95 | 1011.9 |
| 20260505031014 | 12 | 0 | 1.6 | 8.0 | 0.00 | 1.07 | 0.00 | 95 | 1012.0 |
| 20260505030515 | 12 | 0 | 0.0 | 8.0 | 0.00 | 1.07 | 0.00 | 95 | 1012.1 |
| 20260505030034 | 12 | 54 | 0.0 | 8.0 | 0.00 | 1.07 | 0.00 | 95 | 1012.1 |
| 20260505025518 | 12 | 0 | 0.0 | 4.8 | 0.00 | 1.07 | 0.00 | 95 | 1012.1 |
| 20260505025015 | 12 | 0 | 0.0 | 9.7 | 0.00 | 1.07 | 0.00 | 95 | 1012.1 |
| 20260505024532 | 12 | 327 | 0.0 | 9.7 | 0.00 | 1.07 | 0.00 | 95 | 1012.1 |
| 20260505024015 | 12 | 0 | 1.6 | 9.7 | 0.00 | 1.07 | 0.00 | 95 | 1012.1 |
| 20260505023515 | 12 | 333 | 0.0 | 4.8 | 0.00 | 1.07 | 0.00 | 95 | 1012.1 |
| 20260505023032 | 12 | 0 | 0.0 | 9.7 | 0.00 | 1.07 | 0.00 | 95 | 1012.1 |
| 20260505022514 | 12 | 0 | 1.6 | 14.5 | 0.00 | 1.07 | 0.00 | 94 | 1012.2 |
| 20260505022015 | 12 | 341 | 0.0 | 14.5 | 0.00 | 1.07 | 0.00 | 95 | 1012.2 |
| 20260505021530 | 12 | 340 | 0.0 | 8.0 | 0.00 | 1.07 | 0.00 | 95 | 1012.2 |
| 20260505021015 | 12 | 0 | 0.0 | 9.7 | 0.00 | 1.07 | 0.00 | 95 | 1012.3 |
| 20260505020513 | 12 | 0 | 1.6 | 9.7 | 0.00 | 1.07 | 0.00 | 95 | 1012.2 |
| 20260505020035 | 12 | 321 | 1.6 | 9.7 | 0.00 | 1.07 | 0.00 | 94 | 1012.2 |
| 20260505015514 | 12 | 0 | 1.6 | 9.7 | 0.00 | 1.07 | 0.00 | 94 | 1012.2 |
| 20260505015016 | 12 | 25 | 1.6 | 6.4 | 0.00 | 1.07 | 0.00 | 94 | 1012.2 |
| 20260505014538 | 12 | 0 | 0.0 | 3.2 | 0.00 | 1.07 | 0.00 | 94 | 1012.2 |
| 20260505014015 | 12 | 0 | 0.0 | 4.8 | 0.00 | 1.07 | 0.00 | 94 | 1012.1 |
| 20260505013516 | 12 | 0 | 0.0 | 4.8 | 0.00 | 1.07 | 0.00 | 94 | 1012.0 |
| 20260505013037 | 12 | 0 | 0.0 | 4.8 | 0.00 | 1.07 | 0.00 | 94 | 1012.1 |
| 20260505012518 | 12 | 0 | 0.0 | 4.8 | 0.00 | 1.07 | 0.00 | 94 | 1012.2 |
| 20260505012016 | 12 | 0 | 0.0 | 4.8 | 0.00 | 1.07 | 0.00 | 94 | 1012.2 |
| 20260505011538 | 12 | 0 | 0.0 | 3.2 | 0.00 | 1.07 | 0.00 | 94 | 1012.2 |
| 20260505011015 | 12 | 0 | 0.0 | 3.2 | 0.00 | 1.07 | 0.00 | 94 | 1012.2 |
| 20260505010516 | 12 | 0 | 0.0 | 3.2 | 0.00 | 1.07 | 0.00 | 94 | 1012.2 |
| 20260505010030 | 12 | 0 | 0.0 | 6.4 | 0.00 | 1.07 | 0.00 | 94 | 1012.4 |
| 20260505005514 | 12 | 0 | 0.0 | 6.4 | 0.00 | 1.07 | 0.00 | 94 | 1012.5 |
| 20260505005015 | 12 | 0 | 0.0 | 4.8 | 0.00 | 1.07 | 0.00 | 94 | 1012.4 |
| 20260505004540 | 12 | 318 | 0.0 | 3.2 | 0.00 | 1.07 | 0.00 | 94 | 1012.4 |
| 20260505004015 | 12 | 318 | 0.0 | 4.8 | 0.00 | 1.07 | 0.00 | 94 | 1012.4 |
| 20260505003513 | 12 | 0 | 0.0 | 4.8 | 0.00 | 1.07 | 0.00 | 94 | 1012.5 |
| 20260505003050 | 12 | 316 | 0.0 | 4.8 | 0.00 | 1.07 | 0.00 | 94 | 1012.7 |
| 20260505002515 | 12 | 316 | 0.0 | 11.3 | 0.00 | 1.07 | 0.00 | 94 | 1012.7 |
| 20260505002015 | 12 | 0 | 0.0 | 11.3 | 0.00 | 1.07 | 0.00 | 94 | 1012.8 |
| 20260505001530 | 12 | 306 | 0.0 | 8.0 | 0.00 | 1.07 | 0.00 | 94 | 1012.7 |
| 20260505001018 | 12 | 328 | 1.6 | 6.4 | 0.00 | 1.07 | 0.00 | 94 | 1012.8 |
| 20260505000514 | 12 | 0 | 0.0 | 8.0 | 0.00 | 1.07 | 0.00 | 94 | 1012.8 |
| 20260505000034 | 12 | 0 | 0.0 | 8.0 | 0.00 | 1.07 | 0.00 | 94 | 1012.8 |
| 20260504235513 | 12 | 333 | 1.6 | 9.7 | 0.00 | 1.07 | 0.00 | 94 | 1012.9 |
| 20260504235015 | 12 | 330 | 3.2 | 9.7 | 0.00 | 1.07 | 0.00 | 94 | 1012.7 |
| 20260504234530 | 12 | 0 | 0.0 | 9.7 | 0.00 | 1.07 | 0.00 | 94 | 1012.8 |
| 20260504234019 | 12 | 0 | 0.0 | 9.7 | 0.00 | 1.07 | 0.00 | 94 | 1012.8 |
| 20260504233513 | 12 | 304 | 3.2 | 9.7 | 0.00 | 1.07 | 0.00 | 94 | 1012.9 |
| 20260504233029 | 12 | 0 | 0.0 | 0.0 | 0.00 | 1.07 | 0.00 | 94 | 1012.9 |
| 20260504232518 | 12 | 0 | 0.0 | 0.0 | 0.00 | 1.07 | 0.00 | 94 | 1013.0 |
| 20260504232015 | 12 | 0 | 0.0 | 1.6 | 0.00 | 1.07 | 0.00 | 94 | 1012.9 |
| 20260504231529 | 12 | 0 | 0.0 | 1.6 | 0.00 | 1.07 | 0.00 | 94 | 1012.9 |
| 20260504231014 | 12 | 0 | 0.0 | 0.0 | 0.00 | 1.07 | 0.00 | 94 | 1013.0 |
| 20260504230518 | 12 | 0 | 0.0 | 0.0 | 0.00 | 1.07 | 0.00 | 94 | 1013.0 |
| 20260504230027 | 12 | 0 | 0.0 | 0.0 | 0.00 | 1.07 | 0.00 | 94 | 1013.2 |
| 20260504225516 | 12 | 0 | 0.0 | 0.0 | 0.00 | 1.12 | 0.00 | 94 | 1013.3 |
| 20260504225016 | 12 | 0 | 0.0 | 0.0 | 0.00 | 1.12 | 0.00 | 94 | 1013.3 |
| 20260504224532 | 12 | 0 | 0.0 | 0.0 | 0.00 | 1.12 | 0.00 | 94 | 1013.3 |
| 20260504224014 | 12 | 0 | 0.0 | 0.0 | 0.00 | 1.12 | 0.00 | 94 | 1013.3 |
| 20260504223515 | 12 | 0 | 0.0 | 0.0 | 0.00 | 1.12 | 0.00 | 93 | 1013.4 |
| 20260504223037 | 12 | 0 | 0.0 | 0.0 | 0.00 | 1.12 | 0.00 | 94 | 1013.4 |
| 20260504222520 | 12 | 0 | 0.0 | 0.0 | 0.00 | 1.12 | 0.00 | 93 | 1013.3 |
| 20260504222015 | 12 | 0 | 0.0 | 1.6 | 0.00 | 1.12 | 0.00 | 93 | 1013.4 |
| 20260504221530 | 12 | 0 | 0.0 | 1.6 | 0.00 | 1.12 | 0.00 | 93 | 1013.6 |
| 20260504221014 | 12 | 0 | 0.0 | 0.0 | 0.00 | 1.12 | 0.00 | 93 | 1013.7 |
| 20260504220515 | 12 | 0 | 0.0 | 1.6 | 0.00 | 1.12 | 0.00 | 93 | 1013.8 |
| 20260504220033 | 12 | 0 | 0.0 | 1.6 | 0.00 | 1.12 | 0.00 | 93 | 1013.8 |
| 20260504215514 | 12 | 0 | 0.0 | 1.6 | 0.00 | 1.17 | 1.12 | 93 | 1013.8 |
| 20260504215019 | 12 | 0 | 0.0 | 0.0 | 0.00 | 1.17 | 1.12 | 93 | 1013.8 |
| 20260504214531 | 12 | 0 | 0.0 | 0.0 | 0.00 | 1.17 | 1.12 | 93 | 1013.9 |
| 20260504214018 | 12 | 0 | 0.0 | 0.0 | 0.00 | 1.17 | 1.12 | 93 | 1013.9 |
| 20260504213515 | 12 | 0 | 0.0 | 1.6 | 0.00 | 1.17 | 1.12 | 93 | 1013.9 |
| 20260504213031 | 12 | 0 | 0.0 | 1.6 | 0.00 | 1.17 | 1.12 | 93 | 1013.9 |
| 20260504212513 | 12 | 0 | 0.0 | 1.6 | 0.00 | 1.17 | 1.12 | 93 | 1014.0 |
| 20260504212015 | 12 | 0 | 0.0 | 0.0 | 0.00 | 1.17 | 1.12 | 93 | 1013.9 |
| 20260504211536 | 12 | 0 | 0.0 | 0.0 | 0.00 | 1.17 | 1.12 | 93 | 1013.9 |
| 20260504211015 | 12 | 0 | 0.0 | 0.0 | 0.00 | 1.17 | 1.12 | 93 | 1013.9 |
| 20260504210515 | 12 | 0 | 0.0 | 0.0 | 0.00 | 1.17 | 1.12 | 92 | 1014.0 |
| 20260504210029 | 12 | 0 | 0.0 | 0.0 | 0.00 | 1.17 | 1.12 | 92 | 1014.0 |
| 20260504205512 | 12 | 0 | 0.0 | 0.0 | 0.00 | 1.17 | 1.12 | 92 | 1014.0 |
| 20260504205014 | 12 | 0 | 0.0 | 0.0 | 0.00 | 1.17 | 1.12 | 92 | 1014.1 |
| 20260504204532 | 12 | 0 | 0.0 | 0.0 | 0.00 | 1.17 | 1.12 | 92 | 1014.1 |
| 20260504204015 | 12 | 0 | 0.0 | 0.0 | 0.00 | 1.17 | 1.12 | 92 | 1014.1 |
| 20260504203514 | 12 | 0 | 0.0 | 0.0 | 0.00 | 1.17 | 1.12 | 92 | 1014.1 |
| 20260504203029 | 12 | 0 | 0.0 | 0.0 | 0.00 | 1.17 | 1.12 | 92 | 1014.2 |
| 20260504202516 | 12 | 0 | 0.0 | 0.0 | 0.00 | 1.17 | 1.12 | 92 | 1014.1 |
| 20260504202016 | 12 | 0 | 0.0 | 0.0 | 0.00 | 1.17 | 1.12 | 92 | 1014.2 |
| 20260504201531 | 12 | 0 | 0.0 | 0.0 | 0.00 | 1.17 | 1.12 | 92 | 1014.3 |
| 20260504201013 | 12 | 0 | 0.0 | 0.0 | 0.00 | 1.17 | 1.12 | 92 | 1014.2 |
| 20260504200515 | 12 | 0 | 0.0 | 0.0 | 0.00 | 1.17 | 1.12 | 92 | 1014.2 |
| 20260504200029 | 12 | 0 | 0.0 | 0.0 | 0.00 | 1.17 | 1.12 | 92 | 1014.2 |
| 20260504195518 | 13 | 0 | 0.0 | 0.0 | 0.00 | 1.17 | 1.12 | 92 | 1014.1 |
| 20260504195014 | 12 | 0 | 0.0 | 0.0 | 0.03 | 1.17 | 1.12 | 92 | 1014.0 |
| 20260504194528 | 12 | 0 | 0.0 | 0.0 | 0.05 | 1.17 | 1.12 | 92 | 1013.9 |
| 20260504194014 | 13 | 0 | 0.0 | 0.0 | 0.10 | 1.17 | 1.12 | 92 | 1013.9 |
| 20260504193516 | 13 | 0 | 0.0 | 0.0 | 0.15 | 1.17 | 1.12 | 92 | 1013.8 |
| 20260504193030 | 13 | 0 | 0.0 | 0.0 | 0.18 | 1.17 | 1.12 | 92 | 1013.8 |
| 20260504192515 | 13 | 0 | 0.0 | 0.0 | 0.18 | 1.17 | 1.12 | 92 | 1013.7 |
| 20260504192014 | 13 | 0 | 0.0 | 0.0 | 0.18 | 1.17 | 1.12 | 92 | 1013.6 |
| 20260504191529 | 13 | 0 | 0.0 | 0.0 | 0.18 | 1.17 | 1.12 | 92 | 1013.5 |
| 20260504191014 | 13 | 0 | 0.0 | 0.0 | 0.18 | 1.17 | 1.12 | 91 | 1013.5 |
| 20260504190513 | 13 | 0 | 0.0 | 0.0 | 0.20 | 1.17 | 1.12 | 91 | 1013.6 |
| 20260504190032 | 13 | 0 | 0.0 | 0.0 | 0.20 | 1.17 | 1.12 | 92 | 1013.6 |
| 20260504185515 | 13 | 0 | 0.0 | 0.0 | 0.20 | 1.27 | 1.12 | 92 | 1013.5 |
| 20260504185015 | 13 | 0 | 0.0 | 0.0 | 0.18 | 1.24 | 1.09 | 91 | 1013.6 |
| 20260504184543 | 13 | 0 | 0.0 | 0.0 | 0.15 | 1.22 | 1.07 | 91 | 1013.6 |
| 20260504184015 | 13 | 0 | 0.0 | 0.0 | 0.10 | 1.14 | 0.99 | 91 | 1013.7 |
| 20260504183514 | 13 | 0 | 0.0 | 0.0 | 0.10 | 1.12 | 0.97 | 91 | 1013.8 |
| 20260504183029 | 13 | 0 | 0.0 | 1.6 | 0.10 | 1.09 | 0.94 | 91 | 1013.8 |
| 20260504182513 | 13 | 0 | 0.0 | 1.6 | 0.13 | 1.09 | 0.94 | 91 | 1013.8 |
| 20260504182013 | 14 | 0 | 0.0 | 3.2 | 0.15 | 1.09 | 0.94 | 91 | 1013.9 |
| 20260504181531 | 14 | 0 | 0.0 | 3.2 | 0.18 | 1.09 | 0.94 | 91 | 1013.7 |
| 20260504181014 | 14 | 0 | 0.0 | 0.0 | 0.23 | 1.09 | 0.94 | 90 | 1013.7 |
| 20260504180517 | 14 | 0 | 0.0 | 0.0 | 0.25 | 1.07 | 0.91 | 90 | 1013.6 |
| 20260504180028 | 14 | 0 | 0.0 | 0.0 | 0.43 | 1.07 | 0.91 | 90 | 1013.5 |
| 20260504175516 | 14 | 0 | 0.0 | 0.0 | 0.56 | 1.63 | 0.91 | 90 | 1013.5 |
| 20260504175018 | 14 | 0 | 0.0 | 0.0 | 0.64 | 1.63 | 0.91 | 89 | 1013.6 |
| 20260504174529 | 14 | 0 | 0.0 | 0.0 | 0.74 | 1.60 | 0.89 | 89 | 1013.7 |
| 20260504174014 | 15 | 0 | 0.0 | 0.0 | 0.79 | 1.60 | 0.89 | 89 | 1013.7 |
| 20260504173514 | 15 | 0 | 0.0 | 0.0 | 0.76 | 1.57 | 0.86 | 89 | 1013.7 |
| 20260504173028 | 15 | 0 | 0.0 | 4.8 | 0.74 | 1.55 | 0.84 | 89 | 1013.7 |
| 20260504172514 | 15 | 0 | 0.0 | 8.0 | 0.71 | 1.52 | 0.81 | 89 | 1013.8 |
| 20260504172012 | 15 | 0 | 1.6 | 8.0 | 0.66 | 1.47 | 0.76 | 88 | 1013.8 |
| 20260504171529 | 15 | 0 | 0.0 | 4.8 | 0.66 | 1.47 | 0.76 | 87 | 1013.8 |
| 20260504171014 | 15 | 0 | 1.6 | 4.8 | 0.58 | 1.40 | 0.69 | 86 | 1013.7 |
| 20260504170513 | 16 | 0 | 0.0 | 9.7 | 0.53 | 1.32 | 0.64 | 85 | 1013.7 |
| 20260504151016 | 17 | 90 | 1.6 | 4.8 | 0.00 | 1.07 | 0.10 | 78 | 1013.6 |
| 20260504150519 | 17 | 0 | 0.0 | 6.4 | 0.00 | 1.07 | 0.10 | 77 | 1013.7 |
| 20260504141016 | 17 | 0 | 0.0 | 0.0 | 0.00 | 1.07 | 0.10 | 80 | 1014.2 |
| 20260504140517 | 17 | 0 | 0.0 | 0.0 | 0.00 | 1.07 | 0.10 | 81 | 1014.2 |
| 20260504130516 | 17 | 77 | 3.2 | 8.0 | 0.00 | 1.07 | 0.10 | 82 | 1014.7 |
| 20260504110515 | 16 | 0 | 1.6 | 9.7 | 0.03 | 1.12 | 0.08 | 85 | 1015.4 |
| 20260504100514 | 15 | 0 | 0.0 | 0.0 | 0.00 | 1.24 | 0.05 | 88 | 1015.5 |
| 20260504081531 | 13 | 0 | 0.0 | 0.0 | 0.00 | 1.40 | 0.05 | 94 | 1015.4 |
| 20260504081015 | 13 | 0 | 0.0 | 0.0 | 0.00 | 1.40 | 0.05 | 94 | 1015.4 |
| 20260504080514 | 13 | 0 | 0.0 | 0.0 | 0.00 | 1.40 | 0.05 | 94 | 1015.3 |
| 20260504050516 | 11 | 0 | 0.0 | 4.8 | 0.00 | 1.40 | 0.05 | 94 | 1014.2 |
| 20260504045516 | 11 | 0 | 0.0 | 1.6 | 0.00 | 1.40 | 0.05 | 93 | 1014.1 |